Temperature
13 12 12 11 11 11 10 10 10 10 10 10 10 10 10 10 11 11 11 11 11 11 11 12 12 12 12 13 13 13 13 14 14 15 15 15 16 16 16 16 15 15 16
12 12 11 11 10 10 10 10 10 9 9 9 9 9 10 10 10 10 10 10 11 11 11 11 11 11 12 12 12 12 13 13 14 14 15 15 15 15 15 15 15 15 15
11 11 10 10 10 9 9 9 9 9 9 9 9 9 9 9 9 9 10 10 10 10 10 11 11 11 11 11 12 12 12 13 13 14 14 14 14 14 14 14 15 15 15
11 10 10 10 9 9 9 9 9 8 8 9 8 8 9 9 9 9 9 9 9 10 10 10 10 11 11 11 11 11 12 12 12 13 13 14 14 14 14 14 14 14 14
10 10 9 9 9 9 8 8 8 8 8 8 8 8 8 8 8 8 9 9 9 9 10 10 10 10 10 11 11 11 11 11 12 12 12 13 13 13 13 14 14 13 14
10 9 9 9 8 8 8 8 8 8 8 7 7 8 8 8 8 8 8 8 8 8 9 9 10 10 10 10 10 10 11 11 11 12 12 12 12 13 13 13 13 13 13
9 9 8 8 8 8 8 8 7 7 7 7 7 7 7 7 7 7 7 7 7 8 8 9 9 9 10 10 10 10 10 10 11 11 11 12 12 12 13 12 13 13 14
9 8 8 8 8 8 8 8 7 7 7 7 7 7 7 7 7 7 7 7 7 7 8 8 8 9 9 9 10 10 10 10 10 10 11 11 11 12 12 12 12 12 13
8 8 8 8 8 8 8 7 7 7 7 7 7 7 7 7 7 7 6 6 7 7 7 8 8 8 9 9 9 9 9 10 10 10 10 10 10 11 11 11 11 11 12
8 8 8 8 7 7 7 7 7 7 7 7 7 7 7 7 7 7 6 6 6 7 7 7 8 8 8 9 9 9 9 9 9 9 10 10 10 10 11 11 11 11 12
8 8 8 8 7 7 7 7 7 7 7 7 7 7 7 6 6 6 6 6 6 6 7 7 7 8 8 8 8 9 9 9 9 9 9 9 10 10 10 11 11 11 12
8 8 8 8 7 7 7 7 7 7 7 7 7 7 7 6 6 6 6 6 6 6 6 7 7 7 8 8 8 8 9 9 9 9 9 9 9 10 10 10 11 11 11
8 8 8 8 8 7 7 7 7 7 7 7 7 6 6 6 6 6 6 6 6 6 6 7 7 7 7 8 8 8 8 8 8 9 9 9 9 9 10 10 10 10 10
8 8 8 8 8 7 7 7 7 7 7 7 7 6 6 6 6 6 6 6 6 6 6 6 6 7 7 7 8 8 8 8 8 9 9 9 9 9 9 9 10 10 10
8 8 8 8 7 7 7 7 7 7 7 6 6 6 6 6 6 6 6 6 6 6 6 6 6 7 7 7 8 8 8 8 8 8 8 9 9 9 9 9 9 9 10
8 8 8 8 7 7 7 8 8 7 7 7 7 6 6 6 6 6 6 6 6 6 6 6 6 7 7 7 8 8 8 8 8 8 8 8 9 9 9 9 9 9 9
8 8 8 8 7 7 7 7 7 8 7 7 7 7 6 6 6 6 6 6 6 6 6 6 6 7 7 7 8 8 8 8 8 8 8 8 8 9 9 9 9 9 9
8 8 8 8 7 7 7 7 7 7 7 7 7 7 6 6 6 6 6 6 6 6 6 6 6 7 7 7 7 8 8 8 8 8 8 8 8 8 9 9 9 9 9
8 8 8 8 8 7 7 7 7 7 7 7 7 7 7 6 6 6 6 6 6 6 6 6 7 7 7 7 7 8 8 8 8 8 8 8 8 8 8 9 9 9 9
8 8 8 8 8 8 8 8 8 8 8 7 7 7 7 7 6 6 6 6 6 6 6 7 7 7 7 7 7 8 8 8 8 8 8 8 8 8 8 9 9 9 9
8 8 8 8 8 8 8 8 8 8 8 8 8 7 7 7 7 7 7 7 7 7 7 7 7 7 7 7 7 8 8 8 8 8 8 8 8 8 8 9 9 9 9
8 8 8 8 8 8 8 8 8 8 8 8 8 8 7 7 7 7 7 7 7 7 7 7 7 7 7 8 8 8 8 8 8 8 8 8 8 8 8 8 8 9 9
8 8 8 8 8 8 8 8 8 8 8 8 8 8 8 8 8 8 7 7 7 7 7 7 7 7 8 8 8 8 8 8 8 8 8 8 8 8 8 8 8 8 8
8 8 8 8 8 8 8 9 9 8 8 8 8 8 8 8 8 8 8 8 8 8 8 8 8 8 8 8 8 8 8 8 8 8 8 8 8 8 8 8 8 8 8
8 8 8 8 9 9 9 9 9 9 9 9 8 8 8 8 8 8 8 8 8 8 7 7 7 7 7 8 8 8 8 8 8 8 8 8 8 8 8 8 8 8 8
8 8 8 8 9 9 9 9 9 9 9 9 9 9 9 8 8 8 8 8 8 7 7 7 7 7 7 7 8 8 8 8 8 8 8 8 8 8 8 8 8 8 8
Wind_Speed
3 3 4 5 5 5 4 6 6 6 6 6 7 7 7 7 7 7 8 7 8 7 6 6 6 5 3 3 3 3 3 3 4 2 1 1 2 5 5 6 8 8 7
4 4 5 5 5 5 6 7 7 7 7 7 7 7 8 8 7 7 9 9 9 9 8 7 7 5 5 4 4 4 4 4 4 4 2 2 2 6 7 7 6 7 7
4 4 6 6 6 7 8 8 7 8 8 8 7 8 8 8 8 8 9 9 9 10 9 9 8 7 7 5 6 5 5 4 4 4 4 2 2 5 5 5 6 5 6
4 5 7 8 8 8 8 8 8 8 8 8 8 8 8 8 8 9 9 9 9 9 9 10 9 9 9 8 7 7 6 5 4 4 4 3 4 4 6 6 5 3 4
6 7 8 8 7 7 8 8 8 8 9 8 8 8 8 8 8 9 9 10 9 9 9 9 10 12 12 10 7 7 7 6 5 5 5 4 4 6 7 5 6 6 3
6 7 7 7 7 8 8 8 8 8 9 8 8 9 9 10 11 12 9 8 7 8 9 9 10 11 14 15 14 12 11 9 8 6 5 6 6 6 5 7 7 6 4
7 7 7 7 8 8 9 9 9 9 8 9 9 9 9 11 14 15 14 9 8 8 8 8 10 10 11 9 11 13 13 13 11 8 7 7 7 7 8 8 7 7 5
7 7 8 8 9 9 9 9 9 8 8 9 9 9 9 11 14 15 15 10 8 9 9 9 10 9 9 10 9 9 7 8 9 8 7 7 7 7 9 9 7 5 4
7 8 8 8 9 10 10 10 9 9 9 9 8 9 9 11 13 14 13 7 8 9 10 9 10 10 12 13 10 9 8 6 7 9 9 9 9 9 8 7 8 8 5
8 9 9 9 9 10 11 11 9 8 9 9 9 8 9 10 12 14 13 6 7 7 7 9 12 12 13 14 11 10 10 8 7 7 7 7 7 8 11 9 9 8 5
8 9 9 9 9 10 9 8 9 9 9 8 9 9 8 10 11 13 13 7 7 7 7 6 7 13 14 15 13 10 11 9 7 7 6 5 4 5 7 7 7 7 7
8 9 10 10 10 10 9 10 9 8 8 8 7 8 7 7 8 10 11 11 9 7 6 5 6 11 14 14 12 11 13 10 6 6 5 5 5 6 6 8 8 6 5
8 9 10 11 10 9 9 9 9 7 6 6 6 6 7 6 6 8 8 9 10 6 5 6 7 10 11 10 13 14 11 7 6 6 6 6 6 6 6 5 5 5 4
9 10 9 10 11 10 8 7 7 7 6 6 6 6 6 6 5 4 3 3 5 5 4 4 5 7 7 8 8 8 7 7 7 6 6 5 4 5 5 5 5 6 5
9 9 9 9 9 10 9 7 7 6 6 6 6 5 5 6 6 7 4 2 3 4 3 2 2 3 4 4 4 5 6 6 6 5 5 5 5 5 5 5 6 6 6
8 9 8 8 9 8 9 9 9 8 9 9 9 7 6 7 9 8 5 4 5 6 5 3 4 4 5 6 6 6 6 7 7 6 6 6 6 6 6 5 6 7 7
8 9 8 8 8 8 8 8 8 8 7 7 7 7 7 7 6 5 3 1 2 5 3 4 4 5 5 6 6 6 7 7 7 7 6 6 6 6 5 6 6 6 6
8 9 9 8 8 8 7 7 6 6 6 6 5 6 6 5 5 4 2 1 0 2 3 4 4 5 5 5 6 6 6 6 6 6 7 7 7 6 6 7 7 7 7
8 7 8 8 7 7 6 6 5 5 5 5 5 4 4 4 4 3 2 1 2 3 3 4 4 5 5 5 5 6 6 6 6 7 7 8 7 7 7 7 7 10 8
7 12 11 8 7 6 6 6 5 5 5 5 5 4 2 2 2 2 3 3 4 4 4 4 5 5 5 5 5 5 6 6 7 7 7 8 8 8 8 9 8 9 8
7 9 13 9 6 6 6 6 6 5 5 5 5 5 4 3 4 4 4 4 5 5 5 5 5 5 5 5 5 7 7 7 7 7 7 7 8 8 7 8 8 9 8
6 7 7 7 6 6 6 6 6 5 5 5 5 5 5 4 4 4 4 4 5 5 5 5 5 5 5 6 7 7 7 7 7 7 8 8 8 8 8 8 8 8 9
6 7 7 7 6 7 7 6 5 5 5 5 5 5 4 4 4 4 4 4 3 4 4 4 5 4 4 5 5 6 7 7 7 8 8 8 9 9 8 9 11 11 10
6 6 7 7 6 6 6 6 6 6 5 5 4 4 4 4 4 4 4 3 2 2 2 2 3 4 4 4 3 4 4 5 6 8 10 9 9 9 9 10 10 12 11
6 6 6 6 6 6 6 6 6 5 5 5 4 4 4 4 4 3 3 2 1 1 1 0 0 1 2 2 2 2 4 5 5 6 7 7 9 10 10 10 10 11 11
5 6 5 5 6 6 6 6 6 6 6 5 5 4 4 4 4 3 3 2 1 1 1 1 2 3 3 2 2 3 3 4 4 5 5 6 8 9 10 10 12 12 13
Wind_Direction
302 299 307 299 293 293 286 280 277 275 276 272 270 268 266 261 253 240 238 237 232 238 238 231 233 224 218 220 207 199 202 190 204 226 224 153 133 139 133 130 132 130 135
292 298 299 296 294 292 285 280 276 274 272 267 266 264 263 262 253 243 244 243 231 231 232 227 231 227 217 214 207 203 202 204 200 208 205 174 145 157 145 137 129 120 118
302 304 304 300 293 286 282 280 278 274 273 271 266 261 260 258 252 246 241 240 235 231 226 222 223 216 219 215 209 205 205 207 200 199 204 184 155 154 140 129 118 111 114
304 301 297 291 286 283 283 283 280 277 275 272 266 261 257 255 253 250 246 241 238 234 227 222 219 212 214 210 210 207 201 198 195 194 194 181 165 158 149 148 142 134 130
300 298 292 290 290 290 289 287 285 282 284 274 269 266 261 258 258 252 246 248 237 235 232 227 224 220 216 209 206 202 197 194 192 194 193 184 172 168 170 163 159 147 126
297 296 295 298 297 294 290 288 287 284 281 277 270 265 263 269 269 265 252 249 241 234 233 232 233 228 222 215 212 203 195 192 194 192 193 190 187 179 166 165 157 160 169
299 298 300 300 296 293 296 297 288 284 278 276 272 266 261 260 260 260 254 244 237 234 231 229 237 231 215 212 213 210 208 206 195 186 190 195 186 180 171 174 178 170 165
302 301 301 301 298 297 295 291 287 280 277 274 273 267 263 265 263 258 256 246 237 233 229 223 222 226 215 202 200 199 200 205 204 195 192 196 193 183 178 178 173 147 113
302 299 299 299 299 302 300 295 290 286 283 277 272 267 264 267 263 258 253 244 238 236 233 227 219 221 217 199 190 192 197 209 211 203 195 193 188 181 170 158 160 160 157
296 296 298 297 298 300 297 293 290 286 283 284 281 270 264 266 264 258 248 236 237 237 235 229 220 214 212 196 192 190 196 202 193 194 200 201 193 186 179 174 171 171 159
294 299 301 301 299 296 294 292 292 292 292 290 288 284 275 269 270 262 248 228 227 228 228 222 218 208 207 203 196 196 200 187 179 178 182 185 181 182 186 185 179 176 172
300 303 304 304 305 309 302 300 297 295 297 296 295 296 289 283 275 267 252 234 222 218 220 218 215 209 208 203 200 205 195 178 165 168 176 187 188 190 191 190 189 186 182
308 307 307 308 306 302 300 301 304 300 295 297 297 298 302 303 300 287 266 243 225 214 218 216 212 206 198 199 203 195 181 172 165 170 186 196 197 194 181 177 176 169 161
309 309 309 309 308 307 303 298 297 297 295 294 296 297 301 306 312 318 299 257 224 218 221 215 200 186 178 179 181 185 177 176 174 178 186 191 182 178 179 173 173 170 166
310 310 310 306 304 307 305 296 291 279 266 271 279 281 293 301 300 299 286 252 209 199 176 159 148 150 165 170 169 171 173 174 181 179 180 182 183 182 183 175 170 170 175
314 314 310 308 308 308 309 310 300 287 284 268 259 261 271 276 297 301 289 258 225 189 167 167 178 182 185 185 182 183 184 187 188 185 186 188 190 189 183 175 171 177 180
304 307 307 307 307 309 310 311 313 315 307 286 278 273 268 289 305 309 308 303 208 172 168 180 186 191 195 191 188 188 193 195 187 187 190 191 191 186 178 181 180 179 180
305 309 311 304 304 306 306 306 302 305 313 311 297 281 279 286 296 308 323 69 127 183 189 193 197 196 194 193 194 196 195 188 188 192 192 192 189 184 182 184 185 182 179
310 309 309 305 305 305 306 307 304 302 302 300 304 305 289 290 288 278 266 229 224 225 217 215 211 204 203 201 199 197 194 192 192 191 194 194 191 186 187 186 185 184 180
311 314 319 310 310 312 312 313 311 306 303 302 296 290 289 280 283 270 235 233 238 235 230 226 223 217 210 209 207 200 201 202 197 195 195 193 189 186 188 185 183 182 187
310 314 320 317 310 310 310 309 306 303 297 298 292 276 256 257 273 270 257 244 238 236 233 231 228 220 215 212 208 206 203 203 199 196 195 191 185 185 184 182 183 183 180
306 305 310 309 308 308 307 306 305 306 306 305 299 299 280 273 282 279 268 258 244 234 228 224 230 228 218 212 208 203 200 202 200 196 193 190 186 183 178 179 179 178 177
307 309 314 314 313 316 318 316 315 314 311 307 305 309 306 291 285 282 278 278 271 253 239 228 228 234 228 218 210 201 199 203 199 191 187 186 185 184 181 181 179 176 177
307 309 315 319 322 326 321 318 319 321 318 318 316 314 313 308 304 298 290 290 290 283 258 226 219 223 223 212 204 198 195 193 187 187 183 182 182 180 179 180 178 176 176
309 313 318 322 323 325 325 322 322 326 327 325 323 317 318 319 319 321 321 318 307 316 336 21 242 225 195 177 166 163 166 166 169 171 173 174 173 174 176 174 173 171 170
320 325 327 329 329 327 326 326 325 325 326 326 326 321 320 319 317 319 331 342 348 3 33 47 63 78 84 88 112 130 150 161 160 164 170 169 169 172 171 171 169 170 166
Height
1495 1492 1489 1486 1483 1480 1478 1475 1473 1471 1469 1467 1466 1464 1463 1462 1462 1462 1461 1462 1462 1462 1462 1463 1463 1463 1464 1465 1466 1468 1470 1473 1475 1477 1480 1483 1486 1489 1492 1495 1498 1500 1503
1490 1487 1484 1481 1478 1475 1472 1469 1467 1465 1463 1461 1459 1457 1456 1455 1455 1455 1455 1455 1455 1456 1456 1457 1458 1459 1459 1460 1461 1463 1465 1468 1470 1472 1476 1479 1482 1485 1489 1491 1494 1496 1499
1486 1482 1479 1476 1472 1469 1466 1464 1461 1458 1456 1454 1452 1450 1449 1448 1447 1447 1447 1447 1448 1449 1450 1451 1452 1454 1454 1456 1457 1459 1461 1463 1465 1468 1471 1475 1478 1481 1485 1488 1490 1493 1496
1481 1478 1474 1470 1467 1464 1461 1458 1455 1452 1450 1447 1445 1443 1442 1441 1440 1439 1439 1439 1440 1441 1443 1444 1446 1448 1449 1451 1452 1454 1456 1458 1460 1463 1467 1470 1473 1476 1480 1483 1487 1490 1493
1476 1473 1469 1465 1462 1458 1455 1452 1449 1446 1443 1440 1438 1436 1434 1433 1432 1431 1431 1431 1432 1433 1435 1437 1439 1441 1443 1445 1447 1449 1451 1453 1455 1458 1461 1464 1467 1471 1475 1479 1483 1486 1490
1472 1468 1464 1460 1456 1453 1449 1445 1442 1439 1436 1433 1430 1428 1426 1425 1424 1423 1423 1423 1424 1425 1426 1429 1431 1434 1436 1439 1441 1443 1445 1447 1450 1452 1455 1458 1461 1465 1470 1474 1478 1482 1485
1467 1463 1459 1455 1451 1447 1443 1439 1435 1432 1428 1426 1423 1421 1418 1417 1416 1415 1415 1415 1416 1417 1418 1421 1424 1426 1429 1432 1435 1437 1440 1442 1445 1447 1450 1453 1457 1460 1464 1469 1473 1476 1480
1462 1458 1454 1450 1445 1441 1437 1433 1429 1426 1422 1419 1416 1414 1411 1409 1408 1407 1407 1407 1408 1409 1410 1413 1416 1419 1422 1426 1428 1431 1434 1437 1439 1442 1445 1449 1453 1456 1460 1464 1468 1473 1478
1458 1453 1449 1445 1440 1436 1431 1428 1424 1420 1416 1413 1410 1407 1404 1402 1401 1400 1400 1399 1400 1401 1403 1405 1408 1411 1415 1419 1422 1425 1428 1432 1435 1438 1441 1445 1448 1452 1455 1460 1464 1468 1472
1453 1449 1444 1440 1436 1431 1427 1423 1419 1415 1411 1408 1404 1401 1398 1396 1394 1393 1393 1392 1392 1393 1395 1398 1401 1404 1407 1412 1416 1419 1422 1426 1430 1434 1437 1440 1443 1447 1451 1455 1459 1463 1466
1449 1445 1440 1436 1431 1427 1423 1419 1415 1411 1407 1403 1399 1396 1393 1390 1388 1387 1386 1386 1386 1387 1389 1391 1394 1398 1401 1405 1410 1414 1417 1422 1426 1429 1432 1435 1439 1442 1446 1450 1454 1458 1462
1445 1441 1436 1432 1428 1423 1419 1415 1411 1407 1402 1398 1394 1391 1388 1385 1383 1382 1381 1381 1381 1382 1383 1386 1389 1392 1395 1400 1404 1409 1413 1417 1421 1425 1428 1431 1434 1438 1442 1446 1450 1454 1458
1442 1437 1433 1429 1424 1420 1415 1411 1407 1403 1399 1394 1391 1387 1384 1381 1379 1378 1377 1376 1377 1378 1379 1382 1385 1387 1391 1395 1400 1404 1409 1412 1416 1420 1423 1427 1431 1435 1439 1442 1446 1450 1454
1438 1434 1430 1425 1421 1416 1412 1408 1403 1399 1395 1391 1388 1384 1381 1378 1376 1375 1373 1373 1373 1374 1376 1378 1381 1384 1387 1392 1396 1400 1404 1408 1412 1416 1420 1424 1427 1431 1434 1438 1441 1445 1450
1435 1431 1427 1422 1418 1413 1409 1405 1400 1397 1393 1389 1385 1382 1379 1376 1374 1372 1371 1370 1371 1372 1373 1375 1378 1381 1384 1388 1392 1396 1400 1404 1408 1412 1416 1420 1423 1427 1430 1433 1437 1441 1445
1432 1428 1424 1420 1415 1411 1406 1402 1398 1394 1390 1387 1383 1380 1377 1375 1372 1370 1369 1369 1369 1369 1371 1373 1375 1378 1381 1385 1389 1393 1397 1401 1404 1408 1412 1415 1419 1422 1426 1430 1433 1437 1440
1430 1426 1422 1417 1413 1409 1404 1400 1395 1392 1388 1385 1381 1378 1376 1373 1371 1369 1367 1367 1367 1368 1369 1371 1373 1376 1379 1382 1386 1389 1393 1397 1400 1404 1407 1411 1414 1418 1422 1425 1429 1432 1436
1428 1424 1420 1415 1411 1407 1403 1399 1395 1390 1387 1383 1380 1377 1374 1372 1370 1368 1367 1366 1366 1367 1368 1370 1372 1374 1377 1380 1383 1386 1389 1393 1396 1399 1403 1406 1410 1414 1417 1421 1424 1428 1432
1425 1421 1417 1414 1410 1406 1402 1398 1394 1390 1386 1382 1379 1376 1374 1371 1369 1367 1366 1366 1366 1366 1367 1369 1370 1373 1375 1377 1380 1383 1385 1388 1391 1395 1398 1401 1405 1409 1412 1416 1420 1423 1427
1423 1419 1416 1412 1408 1404 1400 1397 1393 1389 1386 1382 1379 1376 1373 1371 1369 1367 1366 1366 1365 1365 1366 1367 1369 1370 1372 1375 1377 1379 1381 1384 1386 1389 1393 1396 1400 1404 1407 1411 1414 1418 1422
1421 1418 1414 1411 1407 1403 1400 1396 1392 1389 1385 1382 1379 1376 1374 1371 1369 1367 1366 1365 1365 1365 1365 1366 1367 1368 1369 1371 1373 1375 1377 1379 1382 1384 1388 1391 1394 1398 1402 1406 1410 1414 1418
1419 1416 1413 1409 1406 1403 1399 1396 1392 1389 1385 1382 1379 1376 1374 1371 1369 1367 1366 1365 1364 1364 1364 1364 1364 1365 1366 1367 1369 1370 1372 1374 1376 1379 1382 1386 1389 1393 1397 1401 1405 1409 1413
1418 1415 1412 1409 1405 1402 1399 1395 1392 1388 1385 1382 1379 1376 1374 1371 1369 1367 1365 1364 1363 1362 1362 1362 1362 1363 1363 1364 1365 1366 1367 1369 1371 1374 1377 1380 1384 1387 1391 1395 1399 1403 1408
1416 1413 1411 1408 1405 1402 1398 1395 1392 1388 1385 1382 1379 1376 1374 1371 1369 1367 1365 1363 1362 1361 1360 1360 1360 1360 1360 1361 1361 1362 1363 1365 1367 1369 1372 1375 1378 1381 1385 1390 1394 1399 1404
1414 1412 1409 1407 1404 1401 1398 1395 1392 1388 1385 1382 1379 1377 1374 1372 1370 1367 1365 1363 1362 1361 1360 1359 1358 1358 1358 1358 1358 1359 1360 1361 1363 1365 1367 1370 1373 1376 1380 1385 1389 1394 1400
1413 1410 1408 1406 1403 1401 1398 1395 1392 1389 1386 1383 1380 1377 1375 1372 1370 1368 1366 1364 1363 1361 1360 1359 1358 1357 1357 1357 1357 1357 1358 1359 1360 1362 1364 1367 1369 1373 1377 1381 1386 1391 1397